[[{"header":{"parameterUnit":"m.s-1","parameterCategory":1,"la1":30.2991,"la2":30.254,"lo1":-89.0895,"lo2":-89.0444,"dy":0.0017,"dx":0.0017,"nx":28,"ny":28,"refTime":"2024-02-25T09:00:00:Z","depth":0,"parameterNumber":2,"parameterNumberName":"U-component_of_WINDS"},"data":[0,0,0,0,0,0,0,0,0,0,0,0,0,0,0,0,0,0,0,0,0,0,0,0,0,0,0,0,0,0,0,0,0,0,0,0,0,0,0,0,0,0,0,0,0,0,0,0,0,0,0,0,0,0,0,0,0,0,-0.4571,-0.4572,0,-0.4676,-0.4677,-0.4678,-0.4747,-0.4748,-0.4748,-0.4749,-0.4854,-0.4856,-0.4859,0,0,0,0,0,0,0,0,0,0,0,0,0,-0.4429,-0.4432,-0.4571,-0.4572,-0.4574,-0.4676,-0.4677,-0.4679,-0.4747,-0.4748,-0.4748,-0.4749,-0.4853,-0.4856,-0.4859,0,0,0,0,0,0,0,0,0,0,0,0,0,-0.4508,-0.4432,-0.4571,-0.462,-0.4626,-0.4675,-0.4677,-0.4679,-0.4747,-0.4748,-0.4748,-0.4749,-0.4852,-0.4856,-0.4859,-0.4867,0,0,-0.487,-0.4872,0,0,0,0,0,0,0,0,-0.4503,-0.4513,-0.4612,-0.4617,-0.4623,-0.4699,-0.4666,-0.4742,-0.4747,-0.4701,-0.4749,-0.4749,-0.4802,-0.4809,-0.4828,-0.4872,-0.4877,-0.487,-0.4873,-0.4874,-0.4875,0,0,0,0,0,0,0,-0.4498,-0.4509,-0.4612,-0.4613,-0.462,-0.4637,-0.4649,-0.4681,-0.4746,-0.4705,-0.471,-0.4722,-0.4805,-0.4824,-0.4831,-0.4878,-0.487,-0.4873,-0.4876,-0.4877,-0.4936,-0.4935,0,0,0,0,0,0,-0.4485,-0.4504,-0.4609,-0.4616,-0.4564,-0.4639,-0.4652,-0.4674,-0.4746,-0.4758,-0.4721,-0.4725,-0.4818,-0.4826,-0.4834,-0.4849,-0.4874,-0.4877,-0.4879,-0.4936,-0.4935,-0.4935,0,0,0,0,0,0,-0.4482,-0.4494,-0.4605,-0.4561,-0.4577,-0.4641,-0.4664,-0.4676,-0.4695,-0.4758,-0.477,-0.4728,-0.4818,-0.4829,-0.4859,-0.4853,-0.4879,-0.4882,-0.4937,-0.4936,-0.4935,-0.4877,0,0,0,0,0,0,-0.4477,-0.4492,-0.4496,-0.4561,-0.4579,-0.4627,-0.4664,-0.4677,-0.4701,-0.4707,-0.4768,-0.4779,-0.482,-0.4853,-0.4862,-0.4859,-0.4885,-0.4938,-0.4936,-0.4935,-0.488,-0.4875,-0.487,0,0,0,0,0,-0.4472,-0.4475,-0.4496,-0.4508,-0.4585,-0.4627,-0.4637,-0.4685,-0.47,-0.4705,-0.4746,-0.4777,-0.4853,-0.4856,-0.4867,-0.4864,-0.4938,-0.4937,-0.4935,-0.4882,-0.4876,-0.487,0,0,0,0,0,0,-0.4406,-0.4484,-0.4508,-0.4532,-0.4573,-0.4639,-0.4645,-0.4676,-0.4712,-0.4716,-0.4773,-0.4786,-0.481,-0.484,-0.4842,-0.4876,-0.4899,-0.49,-0.4855,-0.4849,-0.4844,-0.4836,-0.4888,0,0,0,0,0,-0.4395,-0.4423,-0.4489,-0.4504,-0.4523,-0.4581,-0.4601,-0.4634,-0.4678,-0.4695,-0.4738,-0.4779,-0.4812,-0.4833,-0.4867,-0.4885,-0.49,-0.4889,-0.4884,-0.488,-0.4879,-0.4891,-0.4887,-0.4931,-0.4931,-0.4931,0,0,-0.4371,-0.4417,-0.4431,-0.4492,-0.4527,-0.4555,-0.4595,-0.4622,-0.4643,-0.4699,-0.4729,-0.4763,-0.4812,-0.4836,-0.4849,-0.4862,-0.4871,-0.4878,-0.4874,-0.4876,-0.489,-0.4886,-0.4882,-0.493,-0.493,-0.493,0,0,-0.4341,-0.4379,-0.4396,-0.4431,-0.4484,-0.4522,-0.4526,-0.4588,-0.4613,-0.4645,-0.4688,-0.4713,-0.4769,-0.4803,-0.4827,-0.4812,-0.4842,-0.4821,-0.4795,-0.4806,-0.4802,-0.48,-0.4794,-0.4791,-0.4821,-0.4821,-0.4821,0,-0.4305,-0.4348,-0.44,-0.4425,-0.4451,-0.4505,-0.4522,-0.4553,-0.4614,-0.463,-0.4645,-0.4717,-0.4754,-0.4787,-0.4783,-0.4801,-0.4807,-0.4814,-0.4799,-0.4797,-0.4795,-0.479,-0.4788,-0.4818,-0.4818,-0.4819,-0.4819,0,-0.43,-0.433,-0.4337,-0.4396,-0.4422,-0.4443,-0.4498,-0.4519,-0.455,-0.4587,-0.4619,-0.4666,-0.471,-0.4721,-0.4751,-0.4758,-0.4765,-0.4788,-0.4813,-0.4787,-0.4783,-0.4782,-0.4814,-0.4815,-0.4816,-0.4816,0,0,-0.4231,-0.4319,-0.4321,-0.4348,-0.4412,-0.4435,-0.4459,-0.4504,-0.452,-0.4561,-0.4582,-0.4629,-0.4651,-0.4679,-0.4714,-0.4724,-0.4709,-0.4746,-0.4748,-0.4737,-0.4719,-0.47,-0.4697,-0.473,-0.473,-0.473,-0.4714,0,-0.421,-0.4255,-0.4304,-0.4332,-0.436,-0.4412,-0.4433,-0.4474,-0.4509,-0.4538,-0.4577,-0.4609,-0.4637,-0.4654,-0.4666,-0.4708,-0.4705,-0.471,-0.4749,-0.475,-0.4734,-0.4695,-0.4675,-0.4658,-0.4713,-0.4713,-0.4713,0,-0.4191,-0.423,-0.4262,-0.4323,-0.4337,-0.4354,-0.44,-0.4427,-0.4474,-0.45,-0.4531,-0.4569,-0.4596,-0.4618,-0.4657,-0.4659,-0.4678,-0.4701,-0.4701,-0.4706,-0.4729,-0.4697,-0.4654,-0.4651,-0.4711,-0.4712,-0.4712,0,-0.4136,-0.4197,-0.4224,-0.4246,-0.4318,-0.433,-0.436,-0.4409,-0.4433,-0.4473,-0.4489,-0.453,-0.4553,-0.4584,-0.4632,-0.4644,-0.4666,-0.4692,-0.4687,-0.4685,-0.4688,-0.4687,-0.4646,-0.4702,-0.4702,-0.4702,-0.4702,0,-0.4107,-0.4124,-0.42,-0.4216,-0.4237,-0.4293,-0.4311,-0.4347,-0.439,-0.4414,-0.4462,-0.4483,-0.4546,-0.4575,-0.4613,-0.4638,-0.4648,-0.4669,-0.4679,-0.4664,-0.4661,-0.4677,-0.4679,-0.4701,-0.4701,-0.4701,-0.4702,0,-0.4048,-0.41,-0.4133,-0.42,-0.4217,-0.4229,-0.4286,-0.4304,-0.4343,-0.4372,-0.4383,-0.4443,-0.448,-0.4532,-0.4584,-0.4609,-0.4629,-0.4645,-0.4613,-0.4619,-0.461,-0.461,-0.4577,-0.4575,-0.4633,-0.4632,-0.4631,0,-0.4026,-0.404,-0.4109,-0.4129,-0.4158,-0.4189,-0.4215,-0.427,-0.4294,-0.4351,-0.4362,-0.4402,-0.4437,-0.4493,-0.4542,-0.4582,-0.4599,-0.4585,-0.4605,-0.459,-0.4598,-0.4596,-0.4598,-0.4579,-0.4578,-0.4577,-0.4577,0,-0.398,-0.4005,-0.404,-0.4083,-0.4112,-0.4149,-0.4188,-0.4202,-0.4266,-0.4291,-0.4329,-0.4356,-0.4411,-0.445,-0.4497,-0.4529,-0.4563,-0.457,-0.4571,-0.4556,-0.4536,-0.4546,-0.4598,-0.457,-0.4571,-0.4572,-0.4572,-0.4572,-0.3938,-0.3954,-0.4004,-0.4041,-0.4077,-0.4113,-0.4133,-0.4175,-0.4208,-0.4257,-0.4288,-0.4325,-0.4374,-0.4441,-0.4471,-0.45,-0.4514,-0.4516,-0.4516,-0.4515,-0.451,-0.4533,-0.4509,-0.451,-0.451,-0.451,-0.451,0,-0.3894,-0.393,-0.3964,-0.4017,-0.4046,-0.4078,-0.4124,-0.4145,-0.4177,-0.422,-0.4254,-0.4299,-0.4338,-0.439,-0.4433,-0.4446,-0.4463,-0.4456,-0.4455,-0.4461,-0.4495,-0.449,-0.4441,-0.4441,-0.4441,-0.4441,-0.4441,-0.4441,-0.3874,-0.3902,-0.3933,-0.3979,-0.4015,-0.4052,-0.4075,-0.4109,-0.4143,-0.4191,-0.4224,-0.4258,-0.4305,-0.4352,-0.4389,-0.4403,-0.4416,-0.4404,-0.4423,-0.4453,-0.4459,-0.4465,-0.446,-0.4406,-0.4406,-0.4387,-0.4386,-0.4386]},{"header":{"parameterUnit":"m.s-1","parameterCategory":1,"la1":30.2991,"la2":30.254,"lo1":-89.0895,"lo2":-89.0444,"dy":0.0017,"dx":0.0017,"nx":28,"ny":28,"refTime":"2024-02-25T09:00:00:Z","depth":0,"parameterNumber":3,"parameterNumberName":"V-component_of_WINDS"},"data":[0,0,0,0,0,0,0,0,0,0,0,0,0,0,0,0,0,0,0,0,0,0,0,0,0,0,0,0,0,0,0,0,0,0,0,0,0,0,0,0,0,0,0,0,0,0,0,0,0,0,0,0,0,0,0,0,0,0,4.6002,4.6002,0,4.5991,4.5991,4.5991,4.5958,4.5957,4.5957,4.5956,4.5945,4.5946,4.5946,0,0,0,0,0,0,0,0,0,0,0,0,0,4.5995,4.5996,4.6002,4.6002,4.6002,4.5991,4.5991,4.5991,4.5958,4.5957,4.5956,4.5956,4.5945,4.5946,4.5946,0,0,0,0,0,0,0,0,0,0,0,0,0,4.5993,4.5996,4.6002,4.5984,4.5982,4.5991,4.5991,4.5991,4.5958,4.5957,4.5956,4.5955,4.5945,4.5946,4.5946,4.5971,0,0,4.5948,4.5948,0,0,0,0,0,0,0,0,4.5993,4.5993,4.5987,4.5985,4.5983,4.5975,4.5985,4.5984,4.5959,4.5967,4.5956,4.5955,4.5956,4.5956,4.5956,4.5971,4.597,4.5948,4.5948,4.5949,4.5949,0,0,0,0,0,0,0,4.5993,4.5993,4.5997,4.5987,4.5985,4.5977,4.5975,4.5984,4.5968,4.5967,4.5964,4.5963,4.5955,4.5955,4.5955,4.597,4.5948,4.5948,4.5949,4.5949,4.6006,4.6007,0,0,0,0,0,0,4.5996,4.5994,4.5998,4.5997,4.5986,4.5978,4.5976,4.5979,4.5968,4.5965,4.5964,4.5962,4.5955,4.5955,4.5955,4.5984,4.5949,4.5949,4.5949,4.6005,4.6006,4.6007,0,0,0,0,0,0,4.5996,4.5996,4.5998,4.5995,4.5994,4.5979,4.5982,4.5979,4.5979,4.5966,4.5963,4.5968,4.5954,4.5954,4.5968,4.5983,4.5949,4.595,4.6003,4.6005,4.6007,4.6043,0,0,0,0,0,0,4.5996,4.5997,4.6006,4.5995,4.5995,4.6011,4.5983,4.598,4.5981,4.5977,4.5969,4.5966,4.5953,4.5967,4.5968,4.5983,4.595,4.6002,4.6004,4.6006,4.604,4.6045,4.605,0,0,0,0,0,4.5996,4.6016,4.6006,4.6007,4.6006,4.6012,4.6012,4.5996,4.5982,4.5991,4.5983,4.5966,4.5981,4.5969,4.597,4.5985,4.6001,4.6003,4.6006,4.6038,4.6044,4.605,0,0,0,0,0,0,4.6029,4.6015,4.6003,4.6021,4.6018,4.6006,4.6018,4.6004,4.6005,4.6002,4.5983,4.5981,4.5997,4.5993,4.5979,4.601,4.5988,4.5991,4.6012,4.6018,4.6023,4.6024,4.5951,0,0,0,0,0,4.6039,4.6045,4.6032,4.6049,4.6048,4.6033,4.6035,4.6024,4.602,4.6018,4.601,4.6007,4.6011,4.6014,4.6017,4.6039,4.6037,4.605,4.6055,4.606,4.6063,4.6074,4.608,4.6016,4.6016,4.6016,0,0,4.6058,4.6051,4.6056,4.6055,4.6051,4.6058,4.6032,4.604,4.6045,4.6019,4.6032,4.6026,4.6021,4.6039,4.6047,4.6036,4.608,4.6063,4.6066,4.6067,4.6078,4.6084,4.6089,4.6018,4.6017,4.6017,0,0,4.6098,4.6093,4.6107,4.6103,4.6098,4.6088,4.6092,4.6082,4.6077,4.6089,4.607,4.6076,4.6083,4.6081,4.6081,4.612,4.6105,4.6122,4.6148,4.6159,4.6165,4.6169,4.6184,4.6189,4.6124,4.6124,4.6125,0,4.6123,4.6132,4.6115,4.6125,4.6126,4.6102,4.6117,4.6114,4.611,4.6111,4.6099,4.6108,4.6103,4.6121,4.613,4.6131,4.6134,4.6123,4.6165,4.6169,4.6173,4.6187,4.6192,4.6126,4.6126,4.6126,4.6126,0,4.6164,4.6171,4.6183,4.618,4.6181,4.6193,4.6179,4.6182,4.6171,4.6163,4.6176,4.6169,4.6171,4.6174,4.6163,4.619,4.6183,4.6168,4.6147,4.6182,4.6194,4.6199,4.6129,4.6129,4.6128,4.6128,0,0,4.6224,4.6212,4.6217,4.6215,4.6207,4.6213,4.6224,4.6225,4.6229,4.6227,4.6237,4.6243,4.623,4.623,4.6218,4.6228,4.626,4.6212,4.6212,4.6222,4.6291,4.6302,4.6309,4.6251,4.6251,4.6252,4.6291,0,4.6262,4.628,4.6266,4.6287,4.6293,4.6271,4.6281,4.6278,4.6271,4.6275,4.6267,4.6273,4.6254,4.6254,4.6263,4.6255,4.6274,4.6252,4.626,4.626,4.6262,4.6315,4.6327,4.6364,4.6296,4.6297,4.6297,0,4.6309,4.6309,4.6331,4.6322,4.6325,4.6334,4.6334,4.6339,4.6335,4.6329,4.6329,4.6315,4.6325,4.6304,4.6319,4.6304,4.6306,4.6303,4.6304,4.6305,4.6281,4.6318,4.6376,4.6382,4.6305,4.6304,4.6304,0,4.6352,4.6357,4.6371,4.6371,4.6361,4.6368,4.6364,4.6359,4.6361,4.6361,4.6363,4.6364,4.6365,4.6367,4.6354,4.634,4.6371,4.6349,4.6367,4.6367,4.6375,4.6375,4.6435,4.6376,4.6375,4.6375,4.6375,0,4.6396,4.641,4.639,4.6399,4.6415,4.6398,4.6414,4.6408,4.6403,4.6411,4.6392,4.6399,4.6381,4.6387,4.6377,4.6391,4.6391,4.6387,4.6384,4.6389,4.639,4.6391,4.6388,4.6377,4.6377,4.6376,4.6376,0,4.6446,4.6434,4.6447,4.6437,4.6435,4.6447,4.6438,4.6446,4.6437,4.6447,4.6448,4.6435,4.6441,4.6428,4.6432,4.6425,4.6445,4.6438,4.6447,4.6445,4.6464,4.6463,4.6527,4.6535,4.6471,4.6471,4.6472,0,4.6476,4.6486,4.6477,4.6481,4.6478,4.6484,4.6486,4.647,4.6473,4.6469,4.6477,4.6481,4.6484,4.6494,4.6485,4.6488,4.6481,4.6504,4.6482,4.6486,4.6482,4.6482,4.6483,4.6508,4.6509,4.651,4.651,0,4.653,4.6523,4.6526,4.6528,4.653,4.6531,4.653,4.6534,4.6517,4.6521,4.6526,4.6528,4.6532,4.6537,4.6538,4.6534,4.652,4.6517,4.6522,4.6527,4.6532,4.653,4.646,4.6516,4.6515,4.6515,4.6515,4.6515,4.6571,4.6579,4.6574,4.6579,4.6576,4.6576,4.6583,4.6575,4.658,4.6581,4.6572,4.658,4.6576,4.6575,4.6574,4.658,4.657,4.6576,4.6578,4.658,4.6583,4.6531,4.658,4.658,4.6579,4.6579,4.6579,0,4.6624,4.662,4.6624,4.6623,4.6627,4.6613,4.6611,4.6615,4.6622,4.662,4.6623,4.6629,4.6634,4.6625,4.6628,4.6635,4.6628,4.6636,4.6636,4.6635,4.6592,4.6588,4.6641,4.6641,4.6641,4.6641,4.6641,4.6641,4.6652,4.6666,4.6659,4.6672,4.6667,4.6675,4.6675,4.6675,4.6673,4.6681,4.6684,4.6678,4.6674,4.6676,4.668,4.6677,4.6679,4.669,4.6685,4.6644,4.6638,4.6633,4.6629,4.669,4.669,4.6728,4.6729,4.6729]}]]